GW6326 Weather Reports


time (UTC)temp
F
wind
direction
speed
knots
gust
knots
rain 1hr
in
rain 24hr
in
rain mn
in
humidity
%
barometer
mb
20260906104607 70 85 1.7 1.7 0.00 0.00 0.00 97 1022.0
20260906104101 71 94 0.0 0.0 0.00 0.00 0.00 96 1022.0
20260906103559 71 89 0.9 0.9 0.00 0.00 0.00 96 1022.0
20260906103055 71 99 3.5 4.3 0.00 0.00 0.00 96 1021.8
20260906102554 71 103 0.9 1.7 0.00 0.00 0.00 96 1021.8
20260906102050 71 82 1.7 2.6 0.00 0.00 0.00 95 1021.9
20260906101544 71 93 2.6 2.6 0.00 0.00 0.00 95 1021.7
20260906101039 71 109 1.7 1.7 0.00 0.00 0.00 95 1021.5
20260906100535 71 103 0.9 1.7 0.00 0.00 0.00 95 1021.7
20260906100035 71 111 0.9 0.9 0.00 0.00 0.00 95 1021.7
20260906095530 70 109 0.9 0.9 0.00 0.00 0.00 96 1021.8
20260906095025 70 58 2.6 2.6 0.00 0.00 0.00 95 1021.7
20260906094524 70 99 0.9 0.9 0.00 0.00 0.00 95 1021.3
20260906094020 71 67 1.7 1.7 0.00 0.00 0.00 95 1021.8
20260906093516 70 94 3.5 4.3 0.00 0.00 0.00 95 1021.5
20260906093010 70 87 2.6 4.3 0.00 0.00 0.00 95 1021.6
20260906092505 70 94 1.7 2.6 0.00 0.00 0.00 95 1021.7
20260906092000 71 100 0.9 1.7 0.00 0.00 0.00 95 1021.7
20260906091456 71 106 0.9 0.9 0.00 0.00 0.00 95 1021.5
20260906090953 71 70 0.0 0.0 0.00 0.00 0.00 95 1021.6
20260906090448 71 93 0.9 0.9 0.00 0.00 0.00 95 1021.4
20260906085947 71 84 0.9 0.9 0.00 0.00 0.00 95 1021.5
20260906085446 71 63 1.7 1.7 0.00 0.00 0.00 95 1021.5
20260906084946 71 76 1.7 1.7 0.00 0.00 0.00 95 1021.5
20260906084441 71 77 1.7 1.7 0.00 0.00 0.00 95 1021.5
20260906083939 71 102 0.9 0.9 0.00 0.00 0.00 95 1021.5
20260906083436 71 101 0.0 0.9 0.00 0.00 0.00 96 1021.6
20260906082934 71 94 0.0 0.0 0.00 0.00 0.00 96 1021.7
20260906082430 71 76 0.9 0.9 0.00 0.00 0.00 95 1021.8
20260906081926 71 52 1.7 2.6 0.00 0.00 0.00 95 1021.7
20260906081421 71 81 0.0 0.9 0.00 0.00 0.00 94 1021.7
20260906080917 71 97 1.7 1.7 0.00 0.00 0.00 95 1021.7
20260906080414 71 95 0.9 0.9 0.00 0.00 0.00 95 1021.6
20260906075913 72 97 1.7 1.7 0.00 0.00 0.00 95 1021.8
20260906075408 72 99 0.9 0.9 0.00 0.00 0.00 96 1022.0
20260906074903 72 119 0.9 0.9 0.00 0.00 0.00 96 1021.7
20260906074402 72 103 0.9 0.9 0.00 0.00 0.00 97 1021.8
20260906073901 72 45 2.6 2.6 0.00 0.00 0.00 97 1021.7
20260906073356 72 80 1.7 1.7 0.00 0.00 0.00 97 1021.8
20260906072853 72 83 0.9 0.9 0.00 0.00 0.00 97 1021.7
20260906072348 72 75 1.7 1.7 0.00 0.00 0.00 97 1021.7
20260906071844 72 81 0.9 0.9 0.00 0.00 0.00 97 1021.7
20260906071339 72 82 0.0 0.9 0.00 0.00 0.00 97 1021.7
20260906070836 72 82 0.0 0.0 0.00 0.00 0.00 97 1021.7
20260906070331 72 68 0.9 0.9 0.00 0.00 0.00 97 1021.6
20260906065827 72 83 1.7 1.7 0.00 0.00 0.00 96 1021.7
20260906065321 72 88 1.7 1.7 0.00 0.00 0.00 96 1021.5
20260906064817 72 92 0.9 1.7 0.00 0.00 0.00 96 1021.7
20260906064313 72 88 0.9 1.7 0.00 0.00 0.00 96 1021.9
20260906063812 72 61 1.7 2.6 0.00 0.00 0.00 96 1021.8
20260906063308 72 57 2.6 2.6 0.00 0.00 0.00 95 1021.7
20260906062803 72 50 1.7 1.7 0.00 0.00 0.00 95 1021.7
20260906062305 72 47 2.6 2.6 0.00 0.00 0.00 95 1021.7
20260906061758 72 41 2.6 2.6 0.00 0.00 0.00 95 1021.7
20260906061254 72 36 4.3 6.1 0.00 0.00 0.00 95 1021.8
20260906060749 73 54 4.3 5.2 0.00 0.00 0.00 95 1021.5
20260906060247 73 49 2.6 2.6 0.00 0.00 0.00 95 1021.8
20260906055742 73 66 0.9 2.6 0.00 0.00 0.00 95 1021.6
20260906055237 73 39 3.5 4.3 0.00 0.00 0.00 95 1021.5
20260906054732 73 93 2.6 4.3 0.00 0.00 0.00 95 1021.5
20260906054227 73 31 5.2 6.1 0.00 0.00 0.00 96 1021.3
20260906053724 73 73 0.9 0.9 0.00 0.00 0.00 96 1021.4
20260906053219 73 97 0.9 0.9 0.00 0.00 0.00 96 1020.9
20260906052714 73 97 1.7 1.7 0.00 0.00 0.00 96 1021.1
20260906052210 73 71 2.6 2.6 0.00 0.00 0.00 96 1021.3
20260906051707 73 36 2.6 4.3 0.00 0.00 0.00 97 1021.0
20260906051207 73 87 1.7 1.7 0.00 0.00 0.00 97 1020.9
20260906050702 73 69 2.6 4.3 0.00 0.00 0.00 97 1021.3
20260906050157 73 71 3.5 5.2 0.00 0.00 0.00 97 1020.8
20260906045655 73 77 2.6 4.3 0.00 0.00 0.00 97 1020.7
20260906045151 73 55 1.7 2.6 0.00 0.00 0.00 97 1020.7
20260906044647 73 66 2.6 2.6 0.00 0.00 0.00 97 1020.7
20260906044142 73 58 1.7 1.7 0.00 0.00 0.00 97 1020.8
20260906043638 73 56 5.2 7.8 0.00 0.00 0.00 97 1020.8
20260906043133 73 56 1.7 1.7 0.00 0.00 0.00 97 1020.7
20260906042632 73 87 3.5 4.3 0.00 0.00 0.00 97 1020.7
20260906042127 73 41 5.2 9.6 0.00 0.00 0.00 96 1020.4
20260906041624 73 21 3.5 4.3 0.00 0.00 0.00 97 1020.7
20260906041123 73 21 4.3 5.2 0.00 0.00 0.00 97 1020.5
20260906040619 73 38 6.1 7.0 0.00 0.00 0.00 97 1020.4
20260906040114 73 48 4.3 7.0 0.00 0.00 0.00 97 1020.6
20260906035610 73 99 3.5 4.3 0.00 0.00 0.00 97 1020.2
20260906035105 73 81 2.6 5.2 0.00 0.00 0.00 97 1020.3
20260906034605 73 51 4.3 5.2 0.00 0.00 0.00 97 1020.2
20260906034100 73 65 3.5 4.3 0.00 0.00 0.00 97 1020.3
20260906033556 73 50 5.2 7.0 0.00 0.00 0.00 97 1020.4
20260906033051 73 64 7.0 7.8 0.00 0.00 0.00 97 1020.4
20260906032547 73 53 2.6 4.3 0.00 0.00 0.00 97 1020.1
20260906032041 73 51 5.2 7.0 0.00 0.00 0.00 97 1020.3
20260906031537 73 23 4.3 5.2 0.00 0.00 0.00 97 1020.2
20260906031033 73 16 3.5 5.2 0.00 0.00 0.00 97 1020.1
20260906030532 73 33 5.2 7.0 0.00 0.00 0.00 97 1020.2
20260906030032 73 20 3.5 5.2 0.00 0.00 0.00 97 1020.4
20260906025532 73 9 2.6 2.6 0.00 0.00 0.00 97 1020.4
20260906025030 73 55 2.6 2.6 0.00 0.00 0.00 97 1020.2
20260906024526 73 36 4.3 5.2 0.00 0.00 0.00 97 1020.4
20260906024025 73 74 1.7 2.6 0.00 0.00 0.00 96 1020.4
20260906023522 73 46 7.0 9.6 0.00 0.00 0.00 96 1020.5
20260906023016 73 82 1.7 1.7 0.00 0.00 0.00 95 1020.4
20260906022512 73 32 3.5 4.3 0.00 0.00 0.00 94 1020.6
20260906022007 73 34 3.5 6.1 0.00 0.00 0.00 94 1020.4
20260906021502 73 57 4.3 5.2 0.00 0.00 0.00 94 1020.6
20260906020956 73 46 2.6 5.2 0.00 0.00 0.00 94 1020.6
20260906020450 73 41 4.3 8.7 0.00 0.00 0.00 94 1020.6
20260906015950 72 54 2.6 4.3 0.00 0.00 0.00 94 1020.7
20260906015449 72 48 2.6 2.6 0.00 0.00 0.00 94 1020.8
20260906014949 72 13 6.1 7.0 0.00 0.00 0.00 94 1020.8
20260906014449 72 30 4.3 5.2 0.00 0.00 0.00 95 1020.5
20260906013946 72 43 5.2 7.0 0.00 0.00 0.00 95 1020.6
20260906013441 72 22 6.1 7.0 0.00 0.00 0.00 95 1020.5
20260906012937 72 28 6.1 7.0 0.00 0.00 0.00 95 1020.2
20260906012437 72 347 7.0 8.7 0.00 0.00 0.00 95 1020.3
20260906011936 72 31 8.7 13.0 0.00 0.00 0.00 95 1020.2
20260906011432 72 35 3.5 4.3 0.00 0.00 0.00 94 1020.1
20260906010927 72 354 4.3 7.0 0.00 0.00 0.00 94 1020.0
20260906010422 73 24 6.1 7.8 0.00 0.00 0.00 94 1020.0
20260906005918 73 5 3.5 4.3 0.00 0.00 0.00 94 1019.9
20260906005417 73 33 4.3 5.2 0.00 0.00 0.00 94 1019.7
20260906004916 73 23 6.1 8.7 0.00 0.00 0.00 94 1019.5
20260906004410 73 339 6.1 8.7 0.00 0.00 0.00 94 1019.7
20260906003906 73 348 5.2 6.1 0.00 0.00 0.00 93 1019.7
20260906003401 73 38 7.8 9.6 0.00 0.00 0.00 93 1019.5
20260906002857 73 27 7.8 8.7 0.00 0.00 0.00 93 1019.6
20260906002356 73 350 4.3 5.2 0.00 0.00 0.00 93 1019.7
20260906001852 73 345 6.1 7.8 0.00 0.00 0.00 93 1019.8
20260906001347 73 3 7.8 11.3 0.00 0.00 0.00 93 1019.7
20260906000842 73 43 9.6 11.3 0.00 0.00 0.00 93 1019.6
20260906000342 74 49 3.5 5.2 0.00 0.00 0.00 94 1019.6
20260905235842 74 48 5.2 7.0 0.00 0.00 0.00 93 1019.7
20260905235337 74 352 7.8 9.6 0.00 0.00 0.00 92 1019.7
20260905234832 74 19 6.1 7.0 0.00 0.00 0.00 92 1019.6
20260905234327 75 9 7.0 8.7 0.00 0.00 0.00 92 1019.6
20260905233823 75 6 6.1 7.0 0.00 0.00 0.00 91 1019.3
20260905233317 75 13 4.3 7.0 0.00 0.00 0.00 91 1019.5
20260905232817 75 36 8.7 9.6 0.00 0.00 0.00 90 1019.4
20260905232313 75 37 7.8 8.7 0.00 0.00 0.00 89 1019.5
20260905231808 76 41 4.3 5.2 0.00 0.00 0.00 89 1019.3
20260905231303 76 1 7.8 9.6 0.00 0.00 0.00 89 1019.2
20260905230800 76 39 5.2 7.8 0.00 0.00 0.00 89 1019.3
20260905230257 76 50 5.2 7.8 0.00 0.00 0.00 90 1019.2
20260905225757 76 47 8.7 11.3 0.00 0.00 0.00 89 1019.3
20260905225252 77 355 9.6 12.2 0.00 0.00 0.00 89 1019.5
20260905224751 76 21 9.6 11.3 0.00 0.00 0.00 90 1019.4
20260905224247 76 38 4.3 5.2 0.00 0.00 0.00 91 1019.3
20260905223743 75 28 4.3 7.0 0.00 0.00 0.00 91 1019.4
20260905223240 75 62 6.1 7.0 0.00 0.00 0.00 91 1019.3
20260905222735 76 5 10.4 13.0 0.00 0.00 0.00 91 1019.5
20260905222234 75 13 7.0 7.0 0.00 0.00 0.00 92 1019.7
20260905221730 75 27 3.5 5.2 0.00 0.00 0.00 92 1019.4
20260905221227 76 11 8.7 9.6 0.00 0.00 0.00 92 1019.3
20260905220722 76 3 6.1 7.8 0.00 0.00 0.00 91 1019.1
20260905220218 76 13 5.2 7.0 0.00 0.00 0.00 91 1019.2
20260905215718 76 25 4.3 5.2 0.00 0.00 0.00 90 1019.5
20260905215214 76 359 7.0 8.7 0.00 0.00 0.00 89 1019.2
20260905214709 76 37 6.1 7.0 0.00 0.00 0.00 89 1019.3
20260905214204 76 41 8.7 9.6 0.00 0.00 0.00 89 1019.3
20260905213700 77 4 5.2 7.0 0.00 0.00 0.00 89 1019.3
20260905213155 77 354 7.8 11.3 0.00 0.00 0.00 88 1019.1
20260905212650 77 6 7.8 11.3 0.00 0.00 0.00 89 1019.2
20260905212150 77 27 7.0 8.7 0.00 0.00 0.00 89 1019.0
20260905211644 77 39 7.0 8.7 0.00 0.00 0.00 88 1019.0
20260905211140 78 27 5.2 7.8 0.00 0.00 0.00 88 1019.2
20260905210637 79 9 6.1 7.0 0.00 0.00 0.00 87 1019.1
20260905210136 78 26 6.1 7.8 0.00 0.00 0.00 88 1019.0
20260905205635 79 7 7.8 9.6 0.00 0.00 0.00 87 1019.0
20260905205130 78 341 8.7 11.3 0.00 0.00 0.00 88 1018.9
20260905204629 80 44 7.8 11.3 0.00 0.00 0.00 86 1018.9
20260905204125 79 27 7.8 11.3 0.00 0.00 0.00 87 1019.0
20260905203625 79 18 7.8 9.6 0.00 0.00 0.00 88 1019.2
20260905203120 80 29 3.5 4.3 0.00 0.00 0.00 88 1019.0
20260905202616 80 21 9.6 12.2 0.00 0.00 0.00 85 1018.9
20260905202111 80 332 7.0 8.7 0.00 0.00 0.00 87 1019.1
20260905201607 80 15 7.0 9.6 0.00 0.00 0.00 85 1019.1
20260905201106 81 8 7.0 11.3 0.00 0.00 0.00 85 1019.1
20260905200602 80 9 4.3 7.0 0.00 0.00 0.00 87 1019.2
20260905200056 81 2 8.7 11.3 0.00 0.00 0.00 85 1019.3
20260905195555 80 25 9.6 12.2 0.00 0.00 0.00 84 1019.1
20260905195051 81 341 7.8 8.7 0.00 0.00 0.00 84 1019.0
20260905194550 81 4 9.6 11.3 0.00 0.00 0.00 83 1019.0
20260905194050 80 359 8.7 9.6 0.00 0.00 0.00 83 1019.0
20260905193545 81 35 6.1 6.1 0.00 0.00 0.00 85 1019.2
20260905193040 81 332 6.1 7.8 0.00 0.00 0.00 86 1019.1
20260905192535 82 357 9.6 13.0 0.00 0.00 0.00 84 1019.3
20260905192032 83 11 7.0 8.7 0.00 0.00 0.00 84 1019.2
20260905191530 82 349 5.2 6.1 0.00 0.00 0.00 82 1019.2
20260905191029 83 31 4.3 5.2 0.00 0.00 0.00 82 1019.0
20260905190528 82 39 6.1 7.0 0.00 0.00 0.00 82 1019.3
20260905190028 83 72 6.1 8.7 0.00 0.00 0.00 82 1018.9
20260905185527 83 4 7.0 8.7 0.00 0.00 0.00 81 1019.3
20260905185026 83 2 7.8 8.7 0.00 0.00 0.00 82 1019.2
20260905184521 83 41 7.8 8.7 0.00 0.00 0.00 82 1019.0
20260905184020 83 4 6.1 7.0 0.00 0.00 0.00 83 1019.0
20260905183519 83 25 7.8 11.3 0.00 0.00 0.00 82 1019.3
20260905183015 83 342 9.6 11.3 0.00 0.00 0.00 82 1019.1
20260905182514 83 42 7.0 8.7 0.00 0.00 0.00 81 1019.1
20260905182009 83 37 7.0 9.6 0.00 0.00 0.00 82 1018.9
20260905181510 84 10 6.1 7.8 0.00 0.00 0.00 80 1019.0
20260905181009 84 9 7.0 8.7 0.00 0.00 0.00 80 1018.7
20260905180504 84 28 7.8 11.3 0.00 0.00 0.00 81 1019.0
20260905175959 84 16 6.1 7.0 0.00 0.00 0.00 81 1019.0
20260905175458 84 49 2.6 4.3 0.00 0.00 0.00 82 1019.0
20260905174954 84 22 6.1 7.8 0.00 0.00 0.00 82 1019.0
20260905174449 83 29 6.1 7.0 0.00 0.00 0.00 81 1018.9
20260905173945 84 83 3.5 6.1 0.00 0.00 0.00 83 1019.0
20260905173441 83 355 7.0 8.7 0.00 0.00 0.00 82 1019.0
20260905172936 83 7 6.1 7.8 0.00 0.00 0.00 83 1019.2
20260905172434 83 348 6.1 7.8 0.00 0.00 0.00 82 1018.9
20260905171930 84 19 8.7 9.6 0.00 0.00 0.00 83 1019.0
20260905171426 83 37 3.5 5.2 0.00 0.00 0.00 85 1019.0
20260905170923 83 3 6.1 7.0 0.00 0.00 0.00 85 1019.0
20260905170418 83 358 5.2 6.1 0.00 0.00 0.00 85 1019.1
20260905165917 84 25 3.5 4.3 0.00 0.00 0.00 82 1019.4
20260905165413 84 24 4.3 5.2 0.00 0.00 0.00 85 1019.2
20260905164908 83 68 4.3 7.0 0.00 0.00 0.00 85 1019.2
20260905164402 82 12 7.0 7.8 0.00 0.00 0.00 85 1019.2
20260905163858 83 7 5.2 6.1 0.00 0.00 0.00 87 1019.1
20260905163354 82 350 5.2 7.0 0.00 0.00 0.00 88 1019.2
20260905162850 83 29 2.6 4.3 0.00 0.00 0.00 88 1019.4
20260905162349 83 23 7.0 9.6 0.00 0.00 0.00 88 1019.3
20260905161844 83 53 2.6 2.6 0.00 0.00 0.00 89 1019.2
20260905161344 83 48 2.6 2.6 0.00 0.00 0.00 89 1019.1
20260905160842 83 12 5.2 7.0 0.00 0.00 0.00 88 1019.3
20260905160336 82 351 3.5 4.3 0.00 0.00 0.00 90 1019.3
20260905155831 82 20 4.3 5.2 0.00 0.00 0.00 90 1019.2
20260905155331 82 44 3.5 4.3 0.00 0.00 0.00 89 1019.1
20260905154830 82 41 4.3 5.2 0.00 0.00 0.00 89 1019.0
20260905154326 82 24 3.5 4.3 0.00 0.00 0.00 89 1018.9
20260905153821 81 338 5.2 7.0 0.00 0.00 0.00 89 1019.1
20260905153318 82 358 5.2 7.8 0.00 0.00 0.00 89 1019.2
20260905152817 81 14 7.0 7.8 0.00 0.00 0.00 90 1019.1
20260905152316 81 45 3.5 4.3 0.00 0.00 0.00 91 1019.1
20260905151812 81 54 5.2 7.0 0.00 0.00 0.00 92 1019.0
20260905151307 81 20 7.8 9.6 0.00 0.00 0.00 91 1019.0
20260905150808 82 23 4.3 7.8 0.00 0.00 0.00 90 1018.7
20260905150307 82 349 6.1 7.0 0.00 0.00 0.00 89 1018.8
20260905145805 82 6 5.2 6.1 0.00 0.00 0.00 91 1018.8
20260905145259 82 44 3.5 4.3 0.00 0.00 0.00 91 1018.5
20260905144757 83 32 4.3 5.2 0.00 0.00 0.00 90 1018.5
20260905144254 82 65 0.9 1.7 0.00 0.00 0.00 93 1018.4
20260905143752 81 34 5.2 6.1 0.00 0.00 0.00 93 1018.2
20260905143247 80 12 5.2 6.1 0.00 0.00 0.00 93 1018.3
20260905142745 81 27 4.3 6.1 0.00 0.00 0.00 92 1018.2
20260905142240 81 15 4.3 4.3 0.00 0.00 0.00 93 1018.4
20260905141736 81 349 6.1 6.1 0.00 0.00 0.00 91 1018.2
20260905141232 81 20 2.6 2.6 0.00 0.00 0.00 93 1018.3
20260905140727 81 69 2.6 2.6 0.00 0.00 0.00 92 1018.4
20260905140221 82 37 0.9 0.9 0.00 0.00 0.00 92 1018.5
20260905135720 81 43 3.5 4.3 0.00 0.00 0.00 94 1018.8
20260905135217 80 16 2.6 2.6 0.00 0.00 0.00 96 1018.6
20260905134716 79 36 2.6 2.6 0.00 0.00 0.00 96 1018.7
20260905134215 79 38 2.6 2.6 0.00 0.00 0.00 96 1018.7
20260905133711 80 34 2.6 4.3 0.00 0.00 0.00 96 1018.7
20260905133211 79 39 4.3 5.2 0.00 0.00 0.00 96 1018.7
20260905132710 79 27 4.3 5.2 0.00 0.00 0.00 97 1018.6
20260905132206 78 14 3.5 5.2 0.00 0.00 0.00 99 1018.5
20260905131701 78 21 2.6 2.6 0.00 0.00 0.00 99 1018.3
20260905131156 78 353 3.5 4.3 0.00 0.00 0.00 99 1018.5
20260905130655 78 25 3.5 4.3 0.00 0.00 0.00 99 1018.2
20260905130150 78 55 1.7 1.7 0.00 0.00 0.00 99 1018.2
20260905125650 78 78 0.9 1.7 0.00 0.00 0.00 99 1018.2
20260905125146 78 94 1.7 1.7 0.00 0.00 0.00 99 1018.2
20260905124641 78 95 0.9 0.9 0.00 0.00 0.00 99 1018.2
20260905124138 78 95 0.0 0.9 0.00 0.00 0.00 99 1018.1
20260905123633 77 95 0.9 0.9 0.00 0.00 0.00 99 1018.0
20260905123130 76 95 0.0 0.0 0.00 0.00 0.00 99 1018.0
20260905122629 76 95 0.9 0.9 0.00 0.00 0.00 99 1018.0
20260905122124 75 95 0.0 0.9 0.00 0.00 0.00 99 1017.8
20260905121619 75 95 0.0 0.0 0.00 0.00 0.00 99 1017.7
20260905121114 75 95 0.0 0.0 0.00 0.00 0.00 99 1017.7
20260905120613 75 95 0.0 0.0 0.00 0.00 0.00 99 1017.8
20260905120109 75 95 0.0 0.0 0.00 0.00 0.00 99 1017.5
20260905115607 74 95 0.0 0.0 0.00 0.00 0.00 99 1017.4
20260905115102 74 95 1.7 1.7 0.00 0.00 0.00 99 1017.3
20260905114602 74 95 0.9 1.7 0.00 0.00 0.00 99 1017.3
20260905114101 75 95 0.9 0.9 0.00 0.00 0.00 99 1017.3
20260905113556 74 95 0.9 0.9 0.00 0.00 0.00 99 1017.4
20260905113051 74 95 0.0 0.0 0.00 0.00 0.00 99 1017.3
20260905112546 74 95 0.9 1.7 0.00 0.00 0.00 99 1017.4
20260905112041 75 95 1.7 1.7 0.00 0.00 0.00 99 1017.2
20260905111537 75 95 1.7 1.7 0.00 0.00 0.00 99 1017.4
20260905111036 75 94 0.0 0.0 0.00 0.00 0.00 99 1017.2
20260905110535 75 94 0.0 0.0 0.00 0.00 0.00 99 1017.3
20260905110030 75 94 0.0 0.0 0.00 0.00 0.00 99 1017.3
20260905105530 75 94 0.0 0.9 0.00 0.00 0.00 99 1017.2
20260905105029 75 94 0.0 0.0 0.00 0.00 0.00 99 1017.2